Flag Weather past 2 weeks in Surrey, British Columbia, Canada

Now
54 °F

Cool.


Feels Like: 51 °F
Forecast: 28 / 53 °F
Wind: 10 mph from South

Location: P. Meadows Coastal Station

Current Time: Nov 28, 2014 at 2:04:59 AM

Latest Report: Nov 28, 2014 at 1:00 AM


Visibility: N/A

Pressure: 29.50 "Hg

Humidity: 89%

Dew point: 51 °F

Location of SurreyLocation

Historic Weather in Surrey — Graph

°F

Surrey temperature yesterday

Maximum temperature yesterday: 56 °F (at 1:00 PM)
Minimum temperature yesterday: 52 °F (at 7:00 AM)
Average temperature yesterday: 54 °F

Past Weeks' High & Low Weather Summary

 TemperatureHumidityPressure
High56 °F (Nov 27, 1:00 PM)100% (Nov 14, 1:00 AM)30.57 "Hg (Nov 14, 1:00 AM)
Low21 °F (Nov 14, 4:00 AM)27% (Nov 13, 11:00 AM)29.27 "Hg (Nov 21, 7:00 PM)
Average40 °F87%30.07 "Hg
* Reported Midnight between Nov 12 and Nov 13 — Midnight between Nov 27 and Nov 28, Surrey, Weather by CustomWeather, © 2014

Note: Actual official high and low records may vary slightly from our data, if they occured in-between our weather recording intervals... More about our weather records

Advertising

Surrey weather history for previous 24 hours

 ConditionsComfort  
Time TempWeatherWind HumidityBarometerVisibility
12:00 AM
Nov 28
54 °FCool.7 mph91%29.52 "HgN/A
11:00 PM
Nov 27
53 °FCool.6 mph88%29.55 "HgN/A
10:00 PM53 °FCool.6 mph93%29.57 "HgN/A
9:00 PM53 °FCool.7 mph93%29.58 "HgN/A
8:00 PM54 °FCool.7 mph92%29.59 "HgN/A
7:00 PM54 °FCool.7 mph91%29.61 "HgN/A
6:00 PM55 °FCool.6 mph87%29.62 "HgN/A
5:00 PM55 °FCool.6 mph86%29.63 "HgN/A
4:00 PM56 °FCool.8 mph85%29.64 "HgN/A
3:00 PM56 °FCool.7 mph86%29.64 "HgN/A
2:00 PM56 °FCool.8 mph84%29.66 "HgN/A
1:00 PM56 °FCool.5 mph85%29.67 "HgN/A
12:00 PM54 °FCool.9 mph92%29.70 "HgN/A
11:00 AM56 °FCool.7 mph89%29.73 "HgN/A
10:00 AM54 °FCool.7 mph90%29.74 "HgN/A
9:00 AM53 °FCool.9 mph91%29.74 "HgN/A
7:00 AM52 °FCool.8 mph94%29.75 "HgN/A
6:00 AM52 °FCool.8 mph91%29.75 "HgN/A
5:00 AM54 °FCool.9 mph85%29.75 "HgN/A
4:00 AM54 °FCool.8 mph87%29.75 "HgN/A
3:00 AM54 °FCool.10 mph88%29.75 "HgN/A
2:00 AM54 °FCool.9 mph90%29.75 "HgN/A
Weather by CustomWeather, © 2014

See weather overviewHow to use our weather pages